| time (UTC) | temp F | wind direction | speed knots | gust knots | rain 1hr in | rain 24hr in | rain mn in | humidity % | barometer mb |
| 20260506234530 | 65 | 56 | 0.9 | 7.0 | 0.00 | 0.02 | 0.02 | 76 | 1012.7 |
| 20260506233028 | 65 | 0 | 0.0 | 7.0 | 0.00 | 0.02 | 0.02 | 76 | 1012.4 |
| 20260506231528 | 64 | 0 | 1.7 | 7.8 | 0.00 | 0.02 | 0.02 | 77 | 1012.4 |
| 20260506230027 | 64 | 136 | 1.7 | 7.0 | 0.00 | 0.02 | 0.02 | 76 | 1012.5 |
| 20260506224527 | 65 | 146 | 0.0 | 4.3 | 0.00 | 0.02 | 0.02 | 74 | 1012.2 |
| 20260506223028 | 66 | 49 | 0.9 | 6.1 | 0.00 | 0.02 | 0.02 | 73 | 1012.2 |
| 20260506221529 | 68 | 307 | 0.0 | 5.2 | 0.00 | 0.02 | 0.02 | 71 | 1012.3 |
| 20260506220036 | 68 | 60 | 0.9 | 6.1 | 0.00 | 0.02 | 0.02 | 71 | 1012.1 |
| 20260506214528 | 68 | 30 | 0.9 | 8.7 | 0.00 | 0.02 | 0.02 | 71 | 1012.0 |
| 20260506213031 | 68 | 53 | 2.6 | 10.4 | 0.00 | 0.02 | 0.02 | 70 | 1011.7 |
| 20260506211532 | 71 | 72 | 0.9 | 7.0 | 0.00 | 0.02 | 0.02 | 68 | 1011.7 |
| 20260506210030 | 72 | 298 | 2.6 | 9.6 | 0.00 | 0.02 | 0.02 | 68 | 1011.9 |
| 20260506204530 | 73 | 76 | 1.7 | 9.6 | 0.00 | 0.02 | 0.02 | 68 | 1012.1 |
| 20260506203030 | 72 | 134 | 1.7 | 6.1 | 0.00 | 0.02 | 0.02 | 71 | 1012.0 |
| 20260506201529 | 72 | 162 | 2.6 | 9.6 | 0.00 | 0.02 | 0.02 | 72 | 1011.8 |
| 20260506200026 | 73 | 78 | 0.9 | 8.7 | 0.00 | 0.02 | 0.02 | 72 | 1011.5 |
| 20260506194528 | 76 | 129 | 1.7 | 7.8 | 0.00 | 0.02 | 0.02 | 70 | 1011.2 |
| 20260506193030 | 78 | 53 | 0.9 | 7.0 | 0.00 | 0.02 | 0.02 | 70 | 1011.1 |
| 20260506191527 | 78 | 113 | 1.7 | 7.0 | 0.00 | 0.02 | 0.02 | 69 | 1011.3 |
| 20260506190028 | 79 | 46 | 2.6 | 5.2 | 0.00 | 0.02 | 0.02 | 68 | 1011.5 |
| 20260506184526 | 77 | 63 | 1.7 | 6.1 | 0.00 | 0.02 | 0.02 | 71 | 1011.4 |
| 20260506183028 | 76 | 110 | 0.9 | 4.3 | 0.00 | 0.02 | 0.02 | 73 | 1011.6 |
| 20260506181528 | 74 | 84 | 0.0 | 6.1 | 0.00 | 0.02 | 0.02 | 76 | 1011.7 |
| 20260506180028 | 74 | 60 | 0.9 | 5.2 | 0.00 | 0.02 | 0.02 | 76 | 1011.5 |
| 20260506174529 | 71 | 131 | 0.9 | 5.2 | 0.00 | 0.02 | 0.02 | 79 | 1011.5 |
| 20260506173029 | 70 | 75 | 0.9 | 4.3 | 0.02 | 0.02 | 0.02 | 81 | 1011.9 |
| 20260506171528 | 67 | 66 | 2.6 | 7.0 | 0.02 | 0.02 | 0.02 | 86 | 1011.7 |
| 20260506170026 | 66 | 163 | 4.3 | 8.7 | 0.02 | 0.02 | 0.02 | 89 | 1011.9 |
| 20260506164530 | 65 | 49 | 2.6 | 7.0 | 0.02 | 0.02 | 0.02 | 91 | 1012.1 |
| 20260506163032 | 64 | 232 | 3.5 | 11.3 | 0.00 | 0.00 | 0.00 | 87 | 1012.7 |
| 20260506161533 | 66 | 25 | 3.5 | 7.8 | 0.00 | 0.00 | 0.00 | 87 | 1013.0 |
| 20260506160029 | 68 | 82 | 5.2 | 13.0 | 0.00 | 0.00 | 0.00 | 84 | 1012.9 |
| 20260506154530 | 72 | 79 | 2.6 | 10.4 | 0.00 | 0.00 | 0.00 | 80 | 1012.4 |
| 20260506153027 | 77 | 0 | 0.0 | 1.7 | 0.00 | 0.00 | 0.00 | 86 | 1011.9 |
| 20260506151529 | 77 | 85 | 0.0 | 1.7 | 0.00 | 0.00 | 0.00 | 86 | 1011.4 |
| 20260506150027 | 77 | 72 | 0.9 | 1.7 | 0.00 | 0.00 | 0.00 | 86 | 1011.2 |
| 20260506144527 | 77 | 0 | 0.0 | 3.5 | 0.00 | 0.00 | 0.00 | 86 | 1010.7 |
| 20260506143030 | 77 | 0 | 0.0 | 3.5 | 0.00 | 0.00 | 0.00 | 86 | 1010.4 |
| 20260506141533 | 77 | 58 | 0.9 | 1.7 | 0.00 | 0.00 | 0.00 | 87 | 1010.1 |
| 20260506140030 | 76 | 73 | 0.9 | 1.7 | 0.00 | 0.00 | 0.00 | 88 | 1010.5 |
| 20260506134529 | 75 | 95 | 0.9 | 1.7 | 0.00 | 0.00 | 0.00 | 89 | 1009.7 |
| 20260506133027 | 75 | 56 | 0.0 | 2.6 | 0.00 | 0.00 | 0.00 | 89 | 1009.7 |
| 20260506131528 | 75 | 0 | 0.0 | 3.5 | 0.00 | 0.00 | 0.00 | 89 | 1009.6 |
| 20260506130027 | 75 | 53 | 0.9 | 3.5 | 0.00 | 0.00 | 0.00 | 89 | 1009.5 |
| 20260506124526 | 75 | 96 | 0.0 | 2.6 | 0.00 | 0.00 | 0.00 | 89 | 1009.4 |
| 20260506123026 | 75 | 89 | 0.9 | 2.6 | 0.00 | 0.00 | 0.00 | 89 | 1009.3 |
| 20260506121529 | 75 | 56 | 0.0 | 2.6 | 0.00 | 0.00 | 0.00 | 89 | 1009.3 |
| 20260506120030 | 75 | 0 | 0.0 | 0.9 | 0.00 | 0.00 | 0.00 | 89 | 1009.0 |
| 20260506114527 | 75 | 0 | 0.0 | 0.9 | 0.00 | 0.00 | 0.00 | 88 | 1009.1 |
| 20260506113027 | 75 | 0 | 0.0 | 0.9 | 0.00 | 0.00 | 0.00 | 88 | 1009.1 |
| 20260506111526 | 75 | 0 | 0.0 | 0.9 | 0.00 | 0.00 | 0.00 | 88 | 1009.2 |
| 20260506110030 | 76 | 243 | 0.0 | 0.9 | 0.00 | 0.00 | 0.00 | 88 | 1009.1 |
| 20260506104529 | 76 | 0 | 0.0 | 0.9 | 0.00 | 0.00 | 0.00 | 88 | 1009.0 |
| 20260506103026 | 75 | 0 | 0.0 | 0.9 | 0.00 | 0.00 | 0.00 | 88 | 1009.0 |
| 20260506101525 | 75 | 0 | 0.9 | 5.2 | 0.00 | 0.00 | 0.00 | 88 | 1008.7 |
| 20260506100028 | 75 | 268 | 0.0 | 3.5 | 0.00 | 0.00 | 0.00 | 88 | 1008.6 |
| 20260506094528 | 75 | 252 | 0.9 | 4.3 | 0.00 | 0.00 | 0.00 | 88 | 1008.3 |
| 20260506093034 | 75 | 248 | 0.0 | 4.3 | 0.00 | 0.00 | 0.00 | 88 | 1008.1 |
| 20260506091531 | 75 | 259 | 0.9 | 4.3 | 0.00 | 0.00 | 0.00 | 88 | 1008.0 |
| 20260506090027 | 75 | 253 | 0.9 | 5.2 | 0.00 | 0.00 | 0.00 | 88 | 1007.8 |
| 20260506084534 | 76 | 219 | 1.7 | 7.8 | 0.00 | 0.00 | 0.00 | 88 | 1007.9 |
| 20260506083030 | 76 | 255 | 1.7 | 3.5 | 0.00 | 0.00 | 0.00 | 88 | 1007.9 |
| 20260506081529 | 76 | 250 | 0.9 | 3.5 | 0.00 | 0.00 | 0.00 | 88 | 1007.9 |
| 20260506073028 | 76 | 214 | 0.9 | 3.5 | 0.00 | 0.00 | 0.00 | 87 | 1008.2 |
| 20260506071529 | 76 | 229 | 0.0 | 3.5 | 0.00 | 0.00 | 0.00 | 87 | 1008.5 |
| 20260506061528 | 76 | 263 | 1.7 | 4.3 | 0.00 | 0.00 | 0.00 | 87 | 1008.6 |
| 20260506044538 | 77 | 199 | 1.7 | 5.2 | 0.00 | 0.00 | 0.00 | 86 | 1008.6 |
| 20260506043030 | 77 | 57 | 0.0 | 3.5 | 0.00 | 0.00 | 0.00 | 86 | 1008.6 |
| 20260506041541 | 77 | 302 | 0.9 | 4.3 | 0.00 | 0.00 | 0.00 | 85 | 1008.3 |
| 20260506040033 | 77 | 271 | 0.0 | 1.7 | 0.00 | 0.00 | 0.00 | 85 | 1008.1 |
| 20260506034531 | 78 | 231 | 0.0 | 3.5 | 0.00 | 0.00 | 0.00 | 84 | 1007.9 |
| 20260506033026 | 78 | 0 | 0.0 | 4.3 | 0.00 | 0.00 | 0.00 | 84 | 1007.9 |
| 20260506031530 | 78 | 0 | 0.0 | 2.6 | 0.00 | 0.00 | 0.00 | 83 | 1007.6 |
| 20260506030030 | 78 | 330 | 0.0 | 4.3 | 0.00 | 0.00 | 0.00 | 82 | 1007.5 |
| 20260506024528 | 79 | 30 | 0.0 | 1.7 | 0.00 | 0.00 | 0.00 | 81 | 1007.4 |
| 20260506023030 | 79 | 333 | 0.9 | 4.3 | 0.00 | 0.00 | 0.00 | 80 | 1007.0 |
| 20260506021528 | 80 | 0 | 0.0 | 1.7 | 0.00 | 0.00 | 0.00 | 78 | 1006.6 |
| 20260506020026 | 80 | 108 | 0.0 | 3.5 | 0.00 | 0.00 | 0.00 | 77 | 1006.3 |
| 20260506014528 | 81 | 18 | 0.0 | 2.6 | 0.00 | 0.00 | 0.00 | 76 | 1006.1 |
| 20260506013032 | 81 | 79 | 0.9 | 2.6 | 0.00 | 0.00 | 0.00 | 75 | 1006.2 |
| 20260506011539 | 82 | 241 | 0.0 | 3.5 | 0.00 | 0.00 | 0.00 | 75 | 1006.3 |
| 20260506010029 | 82 | 0 | 0.0 | 2.6 | 0.00 | 0.00 | 0.00 | 74 | 1006.3 |
| 20260506004539 | 82 | 0 | 0.0 | 1.7 | 0.00 | 0.00 | 0.00 | 73 | 1006.4 |
| 20260506003031 | 83 | 266 | 0.0 | 3.5 | 0.00 | 0.00 | 0.00 | 72 | 1006.2 |
| 20260506001527 | 83 | 222 | 0.0 | 4.3 | 0.00 | 0.00 | 0.00 | 72 | 1006.1 |
| 20260506000027 | 83 | 254 | 0.9 | 3.5 | 0.00 | 0.00 | 0.00 | 71 | 1006.1 |